{"data":{"norad_id":52559,"intl_designator":"2022-051AC","name":"STARLINK-3953","alt_names":[],"object_type":"PAYLOAD","status":"ACTIVE","operator":null,"country":"US","launch_date":"2022-05-13","launch_site_code":"AFWTR","launch_vehicle":null,"mission":null,"orbit_class":"UNKNOWN","rcs_meters":null,"size_class":null,"mass_kg":null,"dimensions":null,"purposes":["comms"],"wikipedia_slug":null,"has_3d_model":false,"image_url":null,"decayed_at":null,"tle_current":{"epoch":"2026-09-19T19:16:33.015360Z","epoch_age_seconds":123564,"freshness":"FRESH","line1":"1 52559U 22051AC  26262.80315990 -.00000460  00000+0 -22647-5 0  9996","line2":"2 52559  53.1625 320.8245 0001662  79.2966 280.8224 15.35385465240971","mean_motion":15.35385465,"eccentricity":0.0001662,"inclination_deg":53.1625,"raan_deg":320.8245,"arg_perigee_deg":79.2966,"mean_anomaly_deg":280.8224,"bstar":-2.2647e-6,"rev_number":24097,"period_min":93.787523252345,"perigee_km":458.63933617342,"apogee_km":460.91225838724,"semimajor_km":6837.9127972803,"source":"CELESTRAK","updated_at":"2026-09-20T09:00:40.062214Z"}}}